QPF
0.06 0.05 0.04 0.03 0.02 0.03 0.03 0.03 0.04 0.04 0.04 0.04 0.03 0.03 0.04 0.04 0.04 0.03 0.03 0.03 0.04 0.04 0.03 0.03 0.02 0.02 0.02 0.02 0.01 0.01 0.01 0.01 0.01 0.01 0.01 0.01 0.01 0.01 0.00 0.00 0.01 0.01 0.01
0.07 0.06 0.04 0.03 0.03 0.02 0.02 0.02 0.02 0.03 0.04 0.05 0.05 0.04 0.04 0.05 0.05 0.04 0.04 0.04 0.04 0.04 0.05 0.04 0.02 0.02 0.02 0.02 0.02 0.01 0.01 0.01 0.01 0.01 0.01 0.01 0.01 0.01 0.01 0.01 0.01 0.01 0.01
0.06 0.07 0.06 0.04 0.02 0.02 0.02 0.02 0.01 0.02 0.02 0.02 0.03 0.04 0.03 0.03 0.03 0.04 0.04 0.04 0.03 0.03 0.04 0.03 0.02 0.03 0.03 0.02 0.03 0.02 0.02 0.01 0.01 0.01 0.00 0.00 0.00 0.00 0.01 0.01 0.01 0.01 0.02
0.05 0.08 0.08 0.06 0.04 0.03 0.02 0.01 0.01 0.01 0.01 0.01 0.02 0.03 0.03 0.03 0.02 0.03 0.04 0.03 0.03 0.03 0.02 0.02 0.02 0.03 0.05 0.05 0.03 0.03 0.02 0.02 0.02 0.01 0.01 0.00 0.00 0.01 0.01 0.01 0.01 0.01 0.02
0.04 0.05 0.09 0.08 0.06 0.06 0.04 0.02 0.01 0.01 0.01 0.01 0.02 0.02 0.03 0.03 0.03 0.03 0.03 0.02 0.03 0.03 0.03 0.01 0.01 0.01 0.02 0.04 0.05 0.05 0.04 0.02 0.01 0.01 0.01 0.01 0.01 0.01 0.01 0.01 0.01 0.01 0.01
0.05 0.04 0.06 0.09 0.07 0.06 0.05 0.04 0.02 0.01 0.01 0.01 0.02 0.02 0.02 0.03 0.03 0.04 0.03 0.02 0.01 0.02 0.03 0.02 0.01 0.01 0.01 0.01 0.02 0.03 0.03 0.03 0.03 0.02 0.02 0.02 0.01 0.01 0.01 0.01 0.01 0.01 0.01
0.05 0.05 0.05 0.09 0.10 0.07 0.04 0.03 0.03 0.02 0.02 0.01 0.02 0.02 0.03 0.03 0.03 0.03 0.03 0.02 0.01 0.01 0.01 0.02 0.02 0.01 0.01 0.01 0.01 0.01 0.02 0.03 0.03 0.03 0.02 0.02 0.02 0.02 0.02 0.02 0.02 0.02 0.01
0.06 0.05 0.06 0.08 0.10 0.10 0.08 0.05 0.02 0.02 0.02 0.02 0.03 0.03 0.04 0.04 0.03 0.02 0.02 0.02 0.02 0.01 0.01 0.01 0.02 0.02 0.01 0.00 0.00 0.00 0.01 0.02 0.03 0.03 0.03 0.03 0.03 0.03 0.03 0.04 0.04 0.04 0.03
0.08 0.06 0.04 0.06 0.09 0.11 0.12 0.10 0.04 0.02 0.02 0.02 0.03 0.04 0.04 0.05 0.04 0.03 0.02 0.03 0.02 0.01 0.01 0.01 0.01 0.01 0.01 0.00 0.00 0.00 0.00 0.01 0.01 0.02 0.03 0.03 0.04 0.04 0.04 0.05 0.05 0.05 0.04
0.06 0.06 0.04 0.04 0.06 0.08 0.10 0.12 0.11 0.06 0.03 0.02 0.02 0.02 0.03 0.04 0.04 0.04 0.02 0.02 0.02 0.02 0.01 0.01 0.01 0.01 0.01 0.01 0.00 0.00 0.00 0.00 0.01 0.01 0.02 0.03 0.03 0.04 0.04 0.03 0.03 0.03 0.04
0.03 0.04 0.03 0.03 0.03 0.05 0.07 0.07 0.09 0.10 0.07 0.04 0.02 0.02 0.02 0.03 0.03 0.03 0.03 0.02 0.02 0.01 0.01 0.01 0.02 0.02 0.02 0.02 0.02 0.01 0.00 0.01 0.01 0.01 0.02 0.02 0.03 0.04 0.05 0.03 0.03 0.03 0.03
0.02 0.02 0.02 0.02 0.02 0.02 0.04 0.05 0.05 0.06 0.07 0.07 0.05 0.03 0.02 0.03 0.03 0.03 0.03 0.03 0.02 0.01 0.01 0.01 0.01 0.01 0.02 0.02 0.02 0.02 0.01 0.01 0.01 0.02 0.04 0.04 0.03 0.04 0.03 0.03 0.03 0.03 0.02
0.02 0.01 0.02 0.02 0.01 0.01 0.02 0.03 0.04 0.04 0.03 0.04 0.05 0.05 0.04 0.04 0.03 0.03 0.03 0.04 0.04 0.03 0.02 0.01 0.01 0.01 0.01 0.01 0.02 0.02 0.02 0.02 0.02 0.03 0.05 0.05 0.04 0.03 0.02 0.02 0.02 0.02 0.02
0.01 0.01 0.01 0.01 0.01 0.01 0.01 0.02 0.02 0.03 0.03 0.02 0.03 0.03 0.03 0.04 0.03 0.03 0.03 0.03 0.05 0.04 0.03 0.02 0.02 0.01 0.02 0.02 0.02 0.02 0.02 0.02 0.02 0.02 0.03 0.04 0.02 0.01 0.02 0.02 0.01 0.01 0.01
0.01 0.01 0.01 0.01 0.01 0.01 0.01 0.01 0.02 0.02 0.03 0.03 0.02 0.02 0.02 0.02 0.02 0.02 0.02 0.03 0.04 0.04 0.03 0.02 0.02 0.02 0.02 0.03 0.02 0.02 0.01 0.02 0.02 0.01 0.02 0.01 0.01 0.01 0.01 0.01 0.01 0.01 0.01
0.01 0.01 0.01 0.02 0.01 0.01 0.01 0.02 0.02 0.02 0.02 0.03 0.03 0.02 0.02 0.01 0.01 0.01 0.02 0.02 0.03 0.03 0.03 0.03 0.02 0.03 0.03 0.03 0.03 0.02 0.02 0.02 0.02 0.01 0.01 0.01 0.01 0.01 0.01 0.01 0.01 0.01 0.01
0.03 0.02 0.02 0.02 0.02 0.01 0.01 0.01 0.02 0.02 0.02 0.02 0.03 0.02 0.02 0.02 0.01 0.01 0.02 0.02 0.03 0.03 0.03 0.02 0.02 0.02 0.03 0.03 0.03 0.02 0.02 0.02 0.01 0.01 0.01 0.01 0.00 0.00 0.00 0.00 0.00 0.00 0.00
0.04 0.03 0.02 0.02 0.02 0.02 0.01 0.01 0.01 0.01 0.01 0.02 0.02 0.02 0.01 0.01 0.02 0.01 0.02 0.02 0.03 0.03 0.03 0.02 0.01 0.01 0.02 0.02 0.02 0.02 0.02 0.01 0.01 0.01 0.01 0.01 0.00 0.01 0.01 0.01 0.00 0.00 0.00
0.03 0.03 0.02 0.03 0.02 0.02 0.02 0.01 0.01 0.01 0.01 0.01 0.01 0.01 0.01 0.01 0.01 0.02 0.02 0.02 0.02 0.03 0.03 0.03 0.02 0.02 0.02 0.02 0.01 0.01 0.01 0.01 0.01 0.01 0.01 0.01 0.01 0.01 0.01 0.01 0.01 0.00 0.00
0.03 0.02 0.02 0.02 0.02 0.02 0.02 0.02 0.01 0.01 0.01 0.01 0.01 0.01 0.01 0.01 0.01 0.01 0.02 0.02 0.02 0.03 0.03 0.03 0.03 0.02 0.02 0.02 0.01 0.01 0.01 0.01 0.01 0.01 0.01 0.00 0.00 0.01 0.00 0.00 0.01 0.01 0.01
0.02 0.02 0.02 0.01 0.01 0.01 0.01 0.02 0.01 0.01 0.01 0.01 0.01 0.01 0.01 0.02 0.01 0.01 0.01 0.01 0.02 0.03 0.03 0.03 0.02 0.02 0.02 0.01 0.01 0.01 0.01 0.01 0.01 0.01 0.00 0.00 0.00 0.00 0.00 0.00 0.00 0.00 0.00
0.02 0.02 0.02 0.02 0.01 0.01 0.01 0.01 0.02 0.01 0.01 0.01 0.01 0.02 0.02 0.02 0.02 0.02 0.02 0.02 0.02 0.03 0.03 0.03 0.02 0.02 0.02 0.01 0.01 0.01 0.01 0.01 0.01 0.00 0.00 0.00 0.00 0.00 0.00 0.00 0.00 0.00 0.00
0.03 0.03 0.03 0.02 0.02 0.01 0.01 0.01 0.01 0.01 0.01 0.01 0.01 0.01 0.01 0.02 0.02 0.02 0.02 0.02 0.03 0.03 0.03 0.03 0.02 0.02 0.01 0.01 0.01 0.01 0.01 0.01 0.01 0.01 0.01 0.01 0.00 0.00 0.00 0.00 0.00 0.00 0.00
0.02 0.02 0.03 0.03 0.02 0.02 0.02 0.01 0.01 0.01 0.01 0.01 0.01 0.01 0.01 0.01 0.02 0.02 0.02 0.02 0.02 0.03 0.03 0.03 0.02 0.02 0.02 0.02 0.02 0.02 0.01 0.01 0.01 0.01 0.01 0.01 0.01 0.00 0.00 0.00 0.00 0.00 0.00
0.02 0.02 0.02 0.02 0.02 0.03 0.03 0.02 0.01 0.01 0.01 0.01 0.01 0.01 0.01 0.01 0.01 0.01 0.01 0.01 0.01 0.02 0.02 0.03 0.03 0.02 0.02 0.03 0.03 0.03 0.03 0.03 0.03 0.02 0.02 0.02 0.01 0.01 0.01 0.00 0.00 0.00 0.00
0.02 0.02 0.02 0.01 0.01 0.02 0.02 0.02 0.02 0.01 0.01 0.01 0.01 0.01 0.01 0.01 0.01 0.01 0.01 0.00 0.01 0.01 0.01 0.01 0.02 0.02 0.02 0.02 0.03 0.02 0.03 0.03 0.03 0.03 0.03 0.02 0.02 0.02 0.02 0.01 0.01 0.00 0.00
MSLP
1017.50 1018.07 1018.60 1019.09 1019.58 1020.05 1020.52 1020.96 1021.39 1021.79 1022.18 1022.56 1022.94 1023.34 1023.75 1024.17 1024.57 1024.93 1025.25 1025.50 1025.71 1025.87 1026.04 1026.21 1026.44 1026.72 1027.04 1027.40 1027.75 1028.08 1028.36 1028.57 1028.74 1028.87 1028.98 1029.09 1029.23 1029.38 1029.54 1029.68 1029.78 1029.82 1029.80
1017.09 1017.71 1018.29 1018.86 1019.42 1019.98 1020.52 1021.04 1021.53 1021.98 1022.41 1022.83 1023.24 1023.66 1024.09 1024.52 1024.93 1025.30 1025.61 1025.87 1026.07 1026.24 1026.41 1026.61 1026.86 1027.16 1027.52 1027.90 1028.28 1028.62 1028.91 1029.14 1029.30 1029.43 1029.54 1029.66 1029.79 1029.95 1030.11 1030.26 1030.36 1030.41 1030.39
1016.64 1017.31 1017.97 1018.63 1019.30 1019.96 1020.59 1021.20 1021.76 1022.28 1022.75 1023.20 1023.65 1024.09 1024.53 1024.97 1025.38 1025.75 1026.06 1026.30 1026.49 1026.66 1026.82 1027.02 1027.27 1027.58 1027.95 1028.35 1028.75 1029.11 1029.41 1029.65 1029.83 1029.96 1030.08 1030.20 1030.34 1030.50 1030.67 1030.81 1030.92 1030.97 1030.95
1016.20 1016.93 1017.67 1018.43 1019.20 1019.96 1020.70 1021.40 1022.04 1022.61 1023.14 1023.63 1024.11 1024.57 1025.04 1025.49 1025.90 1026.27 1026.57 1026.80 1026.97 1027.12 1027.26 1027.44 1027.68 1027.99 1028.36 1028.76 1029.16 1029.54 1029.85 1030.11 1030.30 1030.45 1030.57 1030.71 1030.85 1031.02 1031.18 1031.33 1031.43 1031.47 1031.45
1015.79 1016.57 1017.39 1018.23 1019.10 1019.96 1020.79 1021.56 1022.27 1022.91 1023.49 1024.02 1024.54 1025.04 1025.53 1026.00 1026.44 1026.81 1027.11 1027.33 1027.50 1027.62 1027.74 1027.90 1028.11 1028.39 1028.74 1029.13 1029.53 1029.91 1030.24 1030.50 1030.71 1030.88 1031.02 1031.16 1031.31 1031.47 1031.63 1031.77 1031.87 1031.91 1031.89
1015.44 1016.26 1017.13 1018.04 1018.97 1019.90 1020.79 1021.63 1022.39 1023.08 1023.70 1024.28 1024.84 1025.39 1025.92 1026.44 1026.90 1027.30 1027.62 1027.86 1028.02 1028.13 1028.23 1028.36 1028.55 1028.80 1029.12 1029.49 1029.87 1030.24 1030.57 1030.85 1031.07 1031.25 1031.41 1031.56 1031.71 1031.87 1032.02 1032.16 1032.25 1032.28 1032.26
1015.14 1015.98 1016.88 1017.82 1018.79 1019.75 1020.67 1021.54 1022.34 1023.06 1023.73 1024.35 1024.96 1025.56 1026.15 1026.71 1027.23 1027.68 1028.03 1028.30 1028.47 1028.59 1028.69 1028.80 1028.96 1029.19 1029.47 1029.81 1030.17 1030.53 1030.85 1031.13 1031.37 1031.56 1031.73 1031.89 1032.05 1032.21 1032.36 1032.49 1032.58 1032.61 1032.59
1014.87 1015.72 1016.63 1017.58 1018.54 1019.50 1020.43 1021.30 1022.11 1022.85 1023.55 1024.21 1024.87 1025.52 1026.16 1026.79 1027.36 1027.87 1028.28 1028.59 1028.81 1028.95 1029.06 1029.18 1029.32 1029.52 1029.78 1030.09 1030.42 1030.75 1031.06 1031.34 1031.58 1031.79 1031.97 1032.14 1032.32 1032.49 1032.65 1032.78 1032.88 1032.93 1032.92
1014.63 1015.49 1016.38 1017.31 1018.26 1019.19 1020.10 1020.95 1021.75 1022.50 1023.21 1023.90 1024.58 1025.27 1025.97 1026.64 1027.28 1027.84 1028.31 1028.68 1028.95 1029.15 1029.29 1029.42 1029.57 1029.76 1030.00 1030.27 1030.58 1030.89 1031.19 1031.46 1031.70 1031.92 1032.13 1032.33 1032.53 1032.72 1032.90 1033.06 1033.18 1033.24 1033.25
1014.41 1015.26 1016.15 1017.05 1017.96 1018.86 1019.73 1020.56 1021.33 1022.07 1022.78 1023.47 1024.17 1024.88 1025.59 1026.30 1026.97 1027.59 1028.12 1028.55 1028.89 1029.14 1029.34 1029.51 1029.68 1029.87 1030.09 1030.35 1030.63 1030.91 1031.20 1031.46 1031.72 1031.96 1032.19 1032.43 1032.66 1032.90 1033.12 1033.31 1033.46 1033.56 1033.60
1014.19 1015.05 1015.92 1016.80 1017.68 1018.54 1019.38 1020.17 1020.93 1021.64 1022.33 1023.01 1023.69 1024.39 1025.10 1025.81 1026.49 1027.13 1027.71 1028.20 1028.61 1028.93 1029.20 1029.42 1029.62 1029.83 1030.06 1030.30 1030.55 1030.82 1031.09 1031.36 1031.62 1031.89 1032.17 1032.45 1032.74 1033.02 1033.30 1033.54 1033.74 1033.88 1033.95
1013.95 1014.82 1015.69 1016.55 1017.41 1018.25 1019.06 1019.83 1020.57 1021.26 1021.92 1022.57 1023.21 1023.86 1024.53 1025.21 1025.88 1026.53 1027.13 1027.67 1028.14 1028.55 1028.89 1029.18 1029.43 1029.67 1029.90 1030.14 1030.38 1030.63 1030.88 1031.15 1031.44 1031.74 1032.06 1032.40 1032.75 1033.10 1033.43 1033.73 1033.98 1034.17 1034.27
1013.68 1014.55 1015.42 1016.27 1017.12 1017.96 1018.76 1019.53 1020.25 1020.92 1021.55 1022.15 1022.74 1023.33 1023.93 1024.55 1025.19 1025.82 1026.44 1027.02 1027.56 1028.04 1028.46 1028.83 1029.15 1029.42 1029.67 1029.91 1030.14 1030.38 1030.62 1030.90 1031.20 1031.53 1031.90 1032.30 1032.71 1033.13 1033.52 1033.88 1034.18 1034.40 1034.54
1013.35 1014.22 1015.09 1015.94 1016.80 1017.64 1018.45 1019.23 1019.95 1020.61 1021.21 1021.76 1022.28 1022.80 1023.33 1023.88 1024.46 1025.08 1025.70 1026.33 1026.93 1027.49 1028.00 1028.45 1028.83 1029.15 1029.43 1029.67 1029.90 1030.13 1030.37 1030.65 1030.97 1031.33 1031.74 1032.19 1032.66 1033.13 1033.57 1033.97 1034.31 1034.56 1034.73
1012.98 1013.83 1014.68 1015.53 1016.39 1017.24 1018.08 1018.87 1019.60 1020.26 1020.84 1021.35 1021.82 1022.26 1022.72 1023.21 1023.75 1024.34 1024.98 1025.65 1026.32 1026.96 1027.56 1028.09 1028.54 1028.92 1029.23 1029.48 1029.71 1029.94 1030.18 1030.46 1030.79 1031.19 1031.63 1032.12 1032.63 1033.13 1033.61 1034.03 1034.39 1034.66 1034.83
1012.58 1013.38 1014.20 1015.03 1015.89 1016.76 1017.61 1018.43 1019.18 1019.84 1020.41 1020.89 1021.32 1021.71 1022.12 1022.56 1023.07 1023.66 1024.32 1025.03 1025.77 1026.50 1027.18 1027.80 1028.32 1028.75 1029.09 1029.37 1029.61 1029.83 1030.08 1030.37 1030.72 1031.13 1031.60 1032.11 1032.64 1033.16 1033.65 1034.08 1034.43 1034.70 1034.88
1012.21 1012.93 1013.69 1014.49 1015.33 1016.19 1017.05 1017.89 1018.65 1019.33 1019.90 1020.37 1020.78 1021.14 1021.52 1021.95 1022.45 1023.05 1023.74 1024.51 1025.31 1026.12 1026.88 1027.56 1028.15 1028.63 1029.01 1029.31 1029.57 1029.81 1030.07 1030.37 1030.74 1031.17 1031.65 1032.17 1032.70 1033.22 1033.70 1034.12 1034.45 1034.71 1034.88
1011.93 1012.55 1013.22 1013.95 1014.75 1015.59 1016.45 1017.28 1018.05 1018.73 1019.31 1019.79 1020.20 1020.57 1020.94 1021.37 1021.89 1022.51 1023.24 1024.05 1024.91 1025.78 1026.60 1027.34 1027.98 1028.50 1028.92 1029.26 1029.54 1029.81 1030.09 1030.42 1030.81 1031.26 1031.76 1032.28 1032.81 1033.31 1033.77 1034.16 1034.47 1034.70 1034.86
1011.80 1012.29 1012.86 1013.51 1014.24 1015.03 1015.85 1016.67 1017.43 1018.11 1018.70 1019.18 1019.60 1019.99 1020.38 1020.84 1021.38 1022.03 1022.79 1023.63 1024.53 1025.43 1026.28 1027.06 1027.73 1028.29 1028.74 1029.12 1029.44 1029.75 1030.08 1030.45 1030.87 1031.35 1031.86 1032.39 1032.91 1033.39 1033.82 1034.18 1034.47 1034.68 1034.83
1011.84 1012.21 1012.66 1013.21 1013.85 1014.58 1015.34 1016.10 1016.84 1017.50 1018.08 1018.58 1019.02 1019.43 1019.85 1020.33 1020.90 1021.57 1022.35 1023.20 1024.10 1025.00 1025.86 1026.65 1027.33 1027.91 1028.40 1028.82 1029.19 1029.57 1029.95 1030.38 1030.86 1031.37 1031.91 1032.45 1032.96 1033.43 1033.83 1034.17 1034.43 1034.62 1034.77
1012.05 1012.30 1012.64 1013.08 1013.62 1014.25 1014.93 1015.63 1016.31 1016.94 1017.51 1018.00 1018.45 1018.89 1019.34 1019.84 1020.43 1021.11 1021.88 1022.71 1023.59 1024.46 1025.30 1026.06 1026.74 1027.34 1027.85 1028.32 1028.76 1029.20 1029.67 1030.17 1030.71 1031.27 1031.84 1032.39 1032.91 1033.37 1033.76 1034.08 1034.33 1034.52 1034.67
1012.38 1012.52 1012.75 1013.09 1013.52 1014.05 1014.63 1015.25 1015.86 1016.44 1016.97 1017.46 1017.91 1018.36 1018.83 1019.35 1019.95 1020.62 1021.36 1022.16 1022.98 1023.80 1024.59 1025.32 1025.98 1026.58 1027.13 1027.65 1028.16 1028.68 1029.23 1029.82 1030.42 1031.04 1031.65 1032.22 1032.75 1033.21 1033.59 1033.91 1034.16 1034.36 1034.51
1012.75 1012.79 1012.93 1013.17 1013.50 1013.92 1014.41 1014.92 1015.45 1015.97 1016.46 1016.93 1017.39 1017.85 1018.33 1018.86 1019.46 1020.11 1020.82 1021.56 1022.32 1023.08 1023.80 1024.48 1025.12 1025.72 1026.30 1026.88 1027.46 1028.07 1028.71 1029.37 1030.05 1030.71 1031.36 1031.95 1032.48 1032.94 1033.33 1033.65 1033.92 1034.13 1034.30
1013.05 1013.03 1013.10 1013.25 1013.49 1013.81 1014.19 1014.62 1015.06 1015.51 1015.96 1016.41 1016.86 1017.33 1017.83 1018.38 1018.97 1019.61 1020.28 1020.98 1021.68 1022.37 1023.03 1023.68 1024.30 1024.90 1025.52 1026.14 1026.80 1027.48 1028.19 1028.92 1029.65 1030.36 1031.02 1031.63 1032.16 1032.63 1033.02 1033.35 1033.62 1033.86 1034.06
1013.23 1013.16 1013.17 1013.25 1013.42 1013.65 1013.94 1014.28 1014.65 1015.04 1015.45 1015.88 1016.34 1016.82 1017.35 1017.91 1018.52 1019.15 1019.81 1020.47 1021.13 1021.78 1022.41 1023.02 1023.64 1024.26 1024.91 1025.58 1026.30 1027.04 1027.81 1028.58 1029.34 1030.07 1030.73 1031.33 1031.86 1032.32 1032.70 1033.04 1033.33 1033.58 1033.81
1013.25 1013.14 1013.10 1013.13 1013.23 1013.39 1013.61 1013.87 1014.18 1014.53 1014.91 1015.34 1015.81 1016.33 1016.90 1017.50 1018.14 1018.79 1019.46 1020.12 1020.77 1021.40 1022.02 1022.63 1023.26 1023.90 1024.58 1025.30 1026.06 1026.84 1027.64 1028.43 1029.20 1029.91 1030.56 1031.14 1031.64 1032.07 1032.45 1032.79 1033.09 1033.36 1033.59
Thickness
5675 5675 5675 5675 5675 5675 5675 5676 5676 5677 5677 5677 5676 5676 5675 5675 5674 5673 5671 5671 5671 5670 5669 5668 5667 5667 5666 5664 5663 5662 5661 5660 5659 5657 5656 5654 5653 5651 5650 5648 5647 5645 5644
5670 5671 5671 5671 5671 5671 5671 5672 5672 5672 5672 5672 5671 5671 5671 5670 5670 5668 5667 5666 5666 5665 5664 5664 5663 5662 5661 5660 5659 5658 5657 5656 5654 5653 5652 5650 5648 5647 5645 5643 5642 5640 5639
5665 5665 5666 5666 5667 5667 5667 5667 5667 5667 5666 5666 5666 5666 5665 5665 5665 5664 5663 5662 5661 5660 5659 5658 5658 5657 5656 5655 5654 5653 5652 5651 5650 5648 5647 5645 5644 5642 5640 5638 5637 5635 5634
5658 5659 5660 5661 5661 5662 5662 5662 5662 5661 5660 5659 5659 5659 5659 5659 5659 5659 5658 5657 5656 5654 5653 5653 5652 5652 5651 5650 5649 5648 5647 5646 5645 5644 5642 5640 5638 5637 5635 5633 5632 5630 5629
5652 5653 5654 5655 5656 5657 5657 5657 5656 5655 5653 5652 5652 5652 5652 5653 5653 5653 5652 5652 5651 5650 5649 5648 5647 5646 5646 5645 5644 5643 5642 5640 5639 5638 5637 5635 5633 5631 5629 5628 5626 5625 5624
5645 5647 5648 5649 5650 5650 5651 5651 5650 5649 5648 5647 5646 5645 5645 5645 5646 5646 5646 5646 5645 5645 5644 5643 5642 5641 5640 5640 5639 5638 5637 5635 5634 5633 5631 5630 5628 5626 5624 5622 5621 5620 5619
5637 5640 5641 5642 5644 5644 5645 5645 5645 5643 5641 5641 5639 5636 5636 5638 5639 5639 5640 5640 5639 5639 5638 5638 5637 5636 5635 5634 5633 5632 5631 5630 5629 5627 5625 5624 5622 5620 5618 5617 5616 5615 5614
5629 5631 5633 5634 5636 5637 5638 5639 5639 5637 5635 5636 5634 5631 5628 5627 5629 5632 5632 5633 5633 5633 5633 5632 5632 5631 5630 5628 5627 5626 5626 5625 5624 5622 5620 5618 5616 5614 5613 5611 5610 5609 5608
5621 5622 5625 5627 5628 5630 5630 5631 5632 5632 5629 5630 5631 5630 5626 5622 5621 5622 5624 5625 5626 5626 5626 5626 5625 5625 5624 5622 5621 5620 5619 5619 5618 5616 5615 5613 5611 5609 5607 5606 5604 5603 5602
5611 5614 5616 5619 5621 5622 5623 5624 5625 5625 5625 5624 5624 5626 5625 5624 5619 5615 5615 5617 5618 5618 5619 5619 5618 5618 5617 5616 5615 5614 5613 5612 5611 5610 5609 5607 5606 5604 5602 5601 5599 5598 5596
5602 5605 5608 5610 5613 5614 5616 5617 5618 5618 5619 5619 5618 5618 5618 5618 5617 5613 5609 5608 5609 5610 5611 5611 5611 5610 5610 5609 5608 5607 5606 5606 5605 5604 5603 5601 5600 5599 5597 5595 5593 5592 5590
5593 5596 5600 5602 5604 5606 5608 5610 5611 5611 5612 5613 5613 5613 5613 5611 5610 5608 5605 5603 5602 5602 5604 5604 5604 5603 5603 5602 5601 5600 5600 5599 5598 5597 5597 5595 5594 5592 5591 5590 5588 5586 5584
5583 5588 5591 5594 5596 5598 5600 5602 5603 5604 5605 5606 5607 5607 5607 5607 5606 5604 5601 5598 5596 5595 5596 5596 5597 5596 5596 5595 5594 5594 5593 5592 5591 5591 5590 5589 5587 5586 5584 5583 5581 5579 5577
5575 5578 5582 5585 5587 5589 5591 5593 5595 5596 5597 5598 5599 5600 5600 5600 5599 5598 5596 5592 5588 5587 5587 5587 5588 5589 5588 5587 5586 5586 5585 5585 5584 5583 5582 5582 5580 5579 5577 5576 5574 5572 5570
5566 5569 5572 5575 5578 5580 5582 5584 5586 5587 5589 5590 5591 5591 5591 5591 5591 5590 5590 5589 5585 5580 5579 5580 5580 5580 5580 5579 5578 5578 5577 5577 5576 5576 5575 5574 5573 5572 5570 5568 5566 5564 5562
5557 5560 5563 5566 5568 5571 5573 5575 5577 5579 5580 5581 5582 5583 5583 5583 5583 5582 5582 5582 5581 5578 5574 5573 5572 5572 5572 5571 5569 5569 5569 5569 5568 5568 5567 5566 5565 5564 5562 5561 5558 5556 5554
5547 5551 5554 5557 5559 5562 5565 5567 5568 5570 5571 5572 5573 5574 5575 5575 5575 5575 5574 5574 5573 5571 5567 5564 5564 5563 5563 5562 5561 5560 5560 5560 5559 5559 5558 5558 5556 5555 5554 5552 5550 5547 5545
5538 5541 5545 5547 5550 5553 5555 5558 5559 5561 5562 5564 5564 5565 5566 5567 5567 5566 5566 5565 5565 5564 5561 5557 5554 5554 5554 5553 5553 5552 5551 5550 5550 5550 5549 5548 5547 5546 5544 5543 5541 5539 5537
5527 5531 5535 5538 5541 5544 5546 5549 5551 5553 5554 5555 5556 5557 5557 5558 5558 5557 5557 5557 5556 5556 5554 5551 5547 5545 5544 5544 5543 5542 5542 5541 5540 5540 5539 5538 5537 5536 5535 5533 5531 5530 5528
5516 5520 5524 5528 5531 5534 5537 5539 5541 5543 5545 5546 5547 5548 5549 5550 5549 5549 5549 5548 5548 5547 5545 5542 5539 5537 5535 5535 5534 5532 5531 5531 5530 5530 5529 5529 5527 5526 5525 5523 5522 5520 5518
5504 5509 5513 5517 5520 5523 5527 5529 5531 5534 5535 5536 5537 5538 5539 5540 5541 5540 5540 5539 5538 5537 5535 5533 5530 5527 5526 5525 5524 5523 5522 5520 5520 5520 5519 5519 5518 5517 5515 5513 5512 5510 5508
5492 5497 5502 5506 5509 5513 5516 5519 5521 5523 5525 5526 5527 5528 5529 5530 5530 5530 5530 5529 5529 5528 5526 5524 5522 5520 5518 5516 5515 5514 5512 5510 5509 5510 5508 5508 5508 5506 5505 5504 5502 5500 5498
5480 5486 5490 5495 5498 5502 5505 5508 5510 5512 5514 5515 5516 5517 5518 5519 5519 5518 5518 5518 5517 5516 5517 5516 5514 5512 5510 5509 5507 5505 5502 5501 5499 5499 5497 5496 5496 5496 5495 5493 5491 5489 5487
5468 5473 5478 5482 5486 5490 5494 5496 5499 5500 5502 5504 5505 5506 5506 5506 5507 5507 5506 5505 5504 5504 5504 5504 5504 5502 5501 5499 5498 5496 5493 5490 5488 5487 5486 5484 5485 5484 5484 5483 5480 5478 5475
5455 5461 5465 5469 5473 5477 5480 5483 5486 5488 5489 5490 5492 5494 5495 5495 5495 5496 5495 5493 5491 5490 5490 5491 5491 5489 5488 5487 5485 5483 5480 5477 5475 5474 5473 5472 5472 5471 5472 5472 5469 5466 5464
5443 5448 5452 5456 5460 5464 5467 5470 5473 5476 5477 5478 5479 5481 5482 5483 5483 5483 5483 5482 5480 5478 5477 5477 5476 5476 5475 5474 5473 5471 5469 5465 5462 5461 5460 5459 5458 5456 5457 5459 5458 5455 5452